Location: Altoona
(40.5167°N, 78.4000°W)
Time: 08:07:29
(UTC-04:00)

Daily predictions for brighter satellites

Satellite Brightness Start Highest point End
(mag) Time Altitude Azimuth Time Altitude Azimuth Time Altitude Azimuth
Cosmos 1655 Rocket 4.0 20:27:29 10° S 20:33:43 71° E 20:40:02 10° NNE
Cosmos 44 3.4 20:29:33 10° NW 20:33:58 69° WSW 20:38:34 10° SSE
Meteor 2-4 Rocket 4.3 20:31:15 10° N 20:36:24 37° ENE 20:41:40 10° SE
Okean 2 Rocket 3.5 20:32:46 10° SSW 20:37:14 72° W 20:41:47 10° N
CZ-2D R/B 3.2 20:33:39 10° SSE 20:37:30 74° ENE 20:41:22 10° N
ATLAS 2AS CENTAUR R/B 3.3 20:31:23 10° S 20:38:25 43° ESE 20:45:53 10° NE
BREEZE-M DEB (TANK) 2.3 20:41:29 10° SW 20:44:06 65° SE 20:50:28 10° ENE
Meteor 1-13 Rocket 4.4 20:39:11 10° N 20:45:08 64° E 20:50:59 10° SSE
BREEZE-M DEB (TANK) 3.3 20:43:41 10° WNW 20:46:49 78° SSW 20:59:04 11° SE
H-2A R/B 4.2 20:44:32 10° SSW 20:48:06 39° W 20:51:40 10° NNW
Delta 2 Rocket 4.4 20:45:20 10° SW 20:48:43 27° SSE 20:51:53 13° ESE
NOSS 2-3 (E) 3.8 20:44:29 10° SSW 20:49:03 60° ESE 20:54:16 10° NE
Cosmos 839 Rocket 4.4 20:48:00 10° SW 20:54:15 69° WNW 21:00:31 10° NNE
Helios 1B rocket 3.7 20:51:34 10° NE 20:54:46 22° E 20:57:35 12° SE
Resurs 1-3 3.6 20:51:31 10° SSE 20:55:54 86° WSW 21:00:19 10° NNW
USA 186 1.8 20:52:43 10° SSE 20:56:04 90° ESE 20:59:27 10° N
Lacrosse 5 2.0 20:52:28 10° SSW 20:57:23 53° SE 21:02:19 10° NE
Cosmos 1452 Rocket 4.4 20:52:31 10° SW 20:57:41 55° WNW 21:02:53 10° N
Cosmos 1420 Rocket 4.2 20:53:44 10° SSW 20:58:54 77° WNW 21:04:07 10° NNE
Cosmos 1850 Rocket 4.1 20:54:39 10° NNW 20:59:59 68° ENE 21:05:14 10° SSE
Atlas Centaur 2 3.7 20:55:55 10° WSW 21:03:25 37° S 21:08:53 15° SE
SeaSat 1 2.4 21:03:33 10° NNE 21:08:27 66° ESE 21:13:21 10° SSW
Cosmos 1607 4.1 21:07:03 10° NNW 21:13:30 65° NE 21:18:18 19° SE
Okean 1 Rocket 3.1 21:12:53 10° S 21:17:06 55° E 21:21:24 10° NNE
Cosmos 1300 Rocket 3.4 21:13:44 10° S 21:18:02 87° E 21:22:22 10° N
Cosmos 220 Rocket 4.2 21:13:52 10° N 21:18:04 51° ENE 21:20:29 23° SE
Cosmos 2263 Rocket 2.2 21:13:45 10° NNW 21:19:29 81° ENE 21:23:58 17° SSE
Cosmos 1025 Rocket 3.5 21:17:27 10° N 21:21:27 38° ENE 21:23:14 26° SE
NOSS 2-3 (C) 4.2 21:18:04 10° SW 21:22:43 71° NW 21:28:10 10° NNE
Cosmos 2322 Rocket 2.7 21:17:11 10° SW 21:22:49 63° WNW 21:28:29 10° NNE
Okean 2 4.1 21:19:47 10° N 21:23:32 34° ENE 21:24:45 28° ESE
YAOGAN 6 2.5 21:22:14 24° SSE 21:24:12 66° ENE 21:27:42 10° N
Meteor 1-11 Rocket 4.1 21:18:24 10° SSW 21:24:13 69° W 21:29:57 10° N
SJ-11-01 4.2 21:20:59 12° SSE 21:25:17 89° ENE 21:29:59 10° NNW
GPS 2-05 Rocket1 4.0 21:22:58 10° WSW 21:25:53 26° SSW 21:26:33 24° S
Cosmos 1844 Rocket 4.2 21:21:48 10° N 21:26:10 22° NE 21:28:30 17° E
Tiangong 1 0.7 21:23:32 10° WNW 21:26:17 69° SSW 21:26:47 52° SE
Okean 1-7 Rocket 3.9 21:26:43 10° N 21:31:05 48° E 21:32:58 30° SE
Cosmos 2266 Rocket 3.9 21:25:05 10° S 21:31:08 90° ENE 21:37:12 10° N
Resurs 01 Rocket 3.4 21:28:03 10° SSW 21:32:01 31° W 21:36:01 10° NNW
SL-16 R/B 3.2 21:29:34 10° SW 21:35:03 50° WNW 21:40:35 10° NNE
Abrixas rocket 4.3 21:32:56 10° NW 21:35:34 22° N 21:37:17 15° NE
USA 238 DEB 4.2 21:29:11 10° NNW 21:36:03 49° NE 21:39:57 26° ESE
USA 238 4.2 21:29:17 10° NNW 21:36:09 49° NE 21:40:03 26° ESE
Cosmos 1515 4.2 21:33:52 10° N 21:37:28 39° ENE 21:37:54 37° E
Terra 4.0 21:38:02 10° ENE 21:38:24 10° ENE 21:38:56 10° NE
Cosmos 2315 Rocket 4.0 21:33:03 10° N 21:39:17 66° E 21:43:24 23° SSE
Cosmos 1975 4.2 21:40:38 23° ENE 21:40:38 23° ENE 21:43:04 10° NNE
Cosmos 2219 Rocket 3.9 21:42:46 16° ENE 21:42:46 16° ENE 21:44:34 10° ENE
Meteor 1-23 Rocket 4.2 21:37:04 10° N 21:42:40 82° W 21:47:03 17° S
Nadezhda 2 Rocket 4.4 21:37:26 10° S 21:43:26 67° E 21:49:38 10° NNE
Helios 1A 3.0 21:41:24 26° S 21:43:45 83° WSW 21:48:02 10° NNW
Cosmos 2322 3.6 21:40:42 10° S 21:46:17 67° ESE 21:51:56 10° NNE
ERS-1 Rocket 3.0 21:46:40 35° SE 21:48:41 62° ENE 21:53:39 10° N
ATLAS 3B R/B 2.7 21:44:16 10° NNW 21:51:00 66° NE 21:53:55 34° SE
USA 245 4.3 21:51:09 37° E 21:51:56 39° ENE 21:55:56 10° N
Cosmos 1500 3.4 21:52:07 50° E 21:52:07 50° E 21:55:45 10° NNE
Meteor 1-29 2.8 21:50:06 10° NNE 21:53:32 87° ESE 21:54:00 64° S
Cosmos 2360 Rocket 2.2 21:49:47 10° SSW 21:55:25 84° WNW 22:01:05 10° NNE
Cosmos 1939 Rocket 4.4 21:53:52 12° SSW 21:57:06 32° W 22:00:40 10° NNW
COSMOS 2428 3.0 21:55:48 37° SE 21:57:14 44° ESE 22:02:40 10° NE
Cosmos 1745 Rocket 4.5 22:01:10 35° ESE 22:01:50 36° E 22:07:22 10° NNE
H-2A R/B 2.3 22:08:23 43° E 22:08:51 45° ENE 22:13:34 10° N
Cosmos 1892 Rocket 3.6 22:06:05 10° N 22:10:26 60° ENE 22:10:26 60° ENE
Cosmos 2333 Rocket 3.8 22:13:04 20° ENE 22:13:04 20° ENE 22:15:16 10° NE
SAR-Lupe-4 3.8 22:12:33 65° WSW 22:12:34 65° WSW 22:16:09 10° NNW
Cosmos 1238 Rocket 4.0 22:06:53 10° N 22:13:39 73° E 22:15:42 45° SSE
NOAA 11 4.4 22:12:03 33° S 22:14:33 70° WSW 22:20:04 10° NNW
CZ-4B DEB 4.3 22:15:44 30° WNW 22:15:44 30° WNW 22:17:53 10° NNW
Cosmos 2333 4.1 22:16:47 54° SSE 22:17:39 61° ESE 22:23:12 10° NNE
Cosmos 1302 Rocket 3.9 22:19:34 39° SSW 22:21:37 86° ESE 22:26:55 10° NNE
Cosmos 1544 Rocket 3.7 22:24:22 65° NE 22:24:22 65° NE 22:28:17 10° NNE
Cosmos 1486 Rocket 3.8 22:20:27 10° NNW 22:25:43 79° ENE 22:26:11 72° SE
MetOp-A 4.3 22:24:43 44° SSW 22:26:21 67° WSW 22:31:41 10° NNW
Cosmos 2237 Rocket 4.2 22:30:37 15° ENE 22:30:37 15° ENE 22:31:44 10° NE
Cosmos 405 4.1 22:28:30 42° NNW 22:28:30 42° NNW 22:31:04 10° N
Aureole 3 Rocket 4.2 22:19:52 10° N 22:28:14 88° E 22:30:15 49° S
ATLAS 2AS CENTAUR R/B 3.9 22:21:53 10° WSW 22:29:22 49° NW 22:37:14 10° NNE
Helios 1B rocket 4.4 22:26:31 10° N 22:30:03 29° WNW 22:33:35 10° SW
SPOT 5 2.7 22:33:37 86° SSW 22:33:42 87° WSW 22:38:23 10° NNW
BREEZE M DEB (TANK) 2.9 22:27:48 10° WSW 22:33:38 59° W 22:33:38 59° W
Cosmos 1241 Rocket 4.4 22:28:13 10° SSW 22:34:47 90° ESE 22:41:19 10° NNE
Cosmos 1455 Rocket 3.4 22:37:04 59° N 22:37:04 59° N 22:40:43 10° N
NOSS 3-4 (A) 4.0 22:41:26 43° ENE 22:41:26 43° ENE 22:46:01 10° NE
CENTAUR R/B 4.3 22:33:19 10° NNW 22:39:53 29° NE 22:43:21 22° ENE
NOSS 3-4 (C) 4.0 22:41:38 42° ENE 22:41:38 42° ENE 22:46:07 10° NE
Lacrosse 5 3.7 22:36:04 10° W 22:40:34 31° NNW 22:45:06 10° NNE
Cosmos 1066 Rocket 4.1 22:35:09 10° NNW 22:40:35 77° W 22:41:15 67° SSW
SL-8 R/B 4.1 22:44:15 10° WNW 22:48:14 61° WNW 22:48:14 61° WNW
SL-08 RB Rocket 4.2 22:49:38 55° W 22:49:38 55° W 22:53:50 10° NNW
ARGOS 3.7 22:49:54 45° SW 22:50:49 49° W 22:56:01 10° NNW
Atlas Centaur 2 4.2 22:46:31 10° WSW 22:51:30 21° SSW 22:51:30 21° SSW
Nadezhda 1 Rocket 3.8 22:46:22 10° N 22:52:43 81° E 22:53:09 76° SE
Landsat 7 4.4 23:01:05 55° NNW 23:01:05 55° NNW 23:04:49 10° NNW
Meteor 1-21 4.3 22:56:09 10° N 23:01:12 68° NNE 23:01:12 68° NNE
Cosmos 1354 Rocket 4.2 22:58:06 10° NNW 23:02:44 67° NNW 23:02:44 67° NNW
DMSP B5D2-2 4.3 22:58:21 10° NNE 23:02:48 65° N 23:02:48 65° N
Cosmos 2278 Rocket 2.8 23:01:51 10° NNW 23:06:39 48° NE 23:06:39 48° NE
Cosmos 1709 Rocket 4.4 23:10:41 52° NE 23:10:41 52° NE 23:15:40 10° NNE
SPOT 1/Viking Rocket 4.1 23:10:41 51° W 23:10:41 51° W 23:15:31 10° NNW
Cosmos 1844 Rocket 3.1 23:04:53 10° NNW 23:10:09 57° W 23:10:09 57° W
Cosmos 1818 4.3 23:10:06 33° WSW 23:12:12 50° NW 23:17:31 10° NNE
Terra 2.8 23:16:55 44° NNW 23:16:55 44° NNW 23:20:10 10° NNW
H-2A R/B 4.0 23:23:50 25° N 23:23:50 25° N 23:25:51 10° N
Cosmos 2219 Rocket 2.6 23:24:25 58° NW 23:24:25 58° NW 23:29:46 10° NNE
NOSS 3-2 (A) 4.0 23:17:28 10° NW 23:25:04 72° WSW 23:25:38 70° SSW
SL-16 R/B 4.3 23:39:45 17° NE 23:39:45 17° NE 23:41:06 10° NE
ATLAS 3B R/B 4.2 23:36:05 10° WNW 23:41:01 23° WSW 23:41:11 22° WSW
H-2A R/B 4.0 23:49:01 20° W 23:49:01 20° W 23:52:08 10° NW
NOSS 0 Rocket 4.5 23:51:55 56° NW 23:51:55 56° NW 23:57:30 10° NNE
Cosmos 2333 Rocket 3.3 23:55:01 41° NW 23:55:01 41° NW 23:59:56 10° N
ATLAS CENTAUR R/B 4.5 23:53:14 10° N 23:53:18 10° N 23:53:18 10° N
